Weather History for Fort Simpson, NT

Change the Weather History Date:

Thursday, December 19, 2013

  Actual Average Record
Temperature  
Mean Temperature -34 °F -  
Max Temperature -29 °F - - ()
Min Temperature -39 °F - - ()
Degree Days  
Heating Degree Days 99    
Moisture  
Dew Point -42 °F    
Average Humidity 67    
Maximum Humidity 77    
Minimum Humidity 51    
Precipitation  
Precipitation 0.07 in - - ()
Sea Level Pressure  
Sea Level Pressure 30.14 in    
Wind  
Wind Speed 1 mph ()    
Max Wind Speed 2 mph    
Max Gust Speed -    
T = Trace of Precipitation, MM = Missing Value Source: Averaged Metar Reports

Daily Weather History Graph

Daily Weather History Graph

Search for Another Location

Airport:

Trip Planner

Search our weather history database for the weather conditions in past years. The results will help you decide how hot, cold, wet, or windy it might be!

Date:

Astronomy

Dec. 19, 2013 Rise Set
Actual Time 10:24 AM MST 3:39 PM MST
Civil Twilight 9:20 AM MST 4:44 PM MST
Nautical Twilight 8:18 AM MST 5:45 PM MST
Astronomical Twilight 7:23 AM MST 6:40 PM MST
Moon 6:58 PM MST (12/19) 11:01 AM MST (12/19)
Length of Visible Light 7h 24m
Length of Day
5h 15m
Waning Gibbous, 95% of the Moon is Illuminated
Dec 19
Waning Gibbous
Dec 25
Last Quarter
Jan 1
New
Jan 7
First Quarter
Jan 15
Full

Hourly Weather History & Observations

Time (MST) Temp. Dew Point Humidity Pressure Visibility Wind Dir Wind Speed Gust Speed Precip Events Conditions
12:00 AM -38.4 °F -45.8 °F 67% 30.22 in - SSE 1.2 mph - N/A   Unknown
1:00 AM -37.5 °F -44.9 °F 67% 30.20 in - Calm Calm - N/A   Unknown
2:00 AM -37.7 °F -44.9 °F 67% 30.18 in - Calm Calm - N/A   Unknown
3:00 AM -38.2 °F -45.6 °F 67% 30.16 in - North 1.2 mph - N/A   Unknown
4:00 AM -38.2 °F -45.4 °F 67% 30.14 in - SSE 1.2 mph - N/A   Unknown
5:00 AM -36 °F -43 °F 53% 30.12 in - SSE 2.3 mph - -  
5:00 AM -35.7 °F -42.5 °F 69% 30.12 in - SSE 2.3 mph - N/A   Unknown
6:00 AM -37.5 °F -44.9 °F 67% 30.11 in - Calm Calm - N/A   Unknown
7:00 AM -37.3 °F -44.7 °F 67% 30.11 in - Calm Calm - N/A   Unknown
8:00 AM -36.9 °F -44.1 °F 67% 30.10 in - North 1.2 mph - N/A   Unknown
9:00 AM -37.1 °F -44.3 °F 67% 30.11 in - SE 1.2 mph - N/A   Unknown
10:00 AM -36.2 °F -43.2 °F 68% 30.11 in - North 1.2 mph - N/A   Unknown
11:00 AM -37 °F -44 °F 51% 30.11 in - SW 1.2 mph - -  
11:00 AM -36.8 °F -43.8 °F 68% 30.11 in - SW 1.2 mph - N/A   Unknown
12:00 PM -33.0 °F -39.8 °F 69% 30.12 in - Calm Calm - N/A   Unknown
1:00 PM -32.8 °F -39.5 °F 70% 30.13 in - SE 1.2 mph - N/A   Unknown
2:00 PM -31.2 °F -37.8 °F 70% 30.12 in - Calm Calm - N/A   Unknown
3:00 PM -29.4 °F -35.9 °F 71% 30.13 in - NNW 1.2 mph - N/A   Unknown
4:00 PM -31.2 °F -37.8 °F 70% 30.13 in - Calm Calm - N/A   Unknown
5:00 PM -31 °F -37 °F 55% 30.14 in - Calm Calm - -  
5:00 PM -30.6 °F -35.5 °F 77% 30.14 in - Calm Calm - N/A   Unknown
6:00 PM -31.9 °F -38.6 °F 70% 30.13 in - Calm Calm - N/A   Unknown
7:00 PM -32.4 °F -39.1 °F 70% 30.14 in - North 2.3 mph - N/A   Unknown
8:00 PM -32.6 °F -39.3 °F 70% 30.15 in - North 2.3 mph - N/A   Unknown
9:00 PM -33.3 °F -40.2 °F 69% 30.16 in - Calm Calm - N/A   Unknown
10:00 PM -34.2 °F -41.1 °F 69% 30.16 in - Calm Calm - N/A   Unknown
11:00 PM -35 °F -41 °F 54% 30.16 in - Calm Calm - -  
11:00 PM -34.6 °F -41.4 °F 69% 30.16 in - Calm Calm - N/A   Unknown